SCOUT X-4 R/B, 809

Orbit data source: Space-Track

SCOUT X-4 R/B, 809 is space debris in LEO originally from a launch on Thu, 04 Jun 1964 UTC launched from the Air Force Western Test Range (AFWTR). Debris objects in space refer to the collection of defunct objects orbiting the Earth. Examples of debris include non-operational satellites, rocket bodies, and fragments generated from explosions, collisions, or faulty payload assembly.

Loading next visibility...
Identifier
809, 1964-026D
Orbit
LEO
Last TLE update
2 days ago
Origin
Manufacturer
ABL
Mission
Spacecraft
Bus & Motor
ALTAIR, Unknown motor
Mass
33 kg wet, 33 kg dry
Launch date (UTC)
1964-06-04 (61 years ago)
Launch vehicle
Unknown
Launch site
Air Force Western Test Range (AFWTR)
Object type
Payload
Rocket body
Debris
Shape & HBR
Cyl, 1.5 m
Radar Cross Section
0.687 m², Medium (>0.1 m² and < 1m²)

Expand to show TLE details & history

TLE from 2 days ago
0 SCOUT X-4 R/B
1 00809U 64026D   25118.52170568  .00000541  00000-0  29694-3 0  9999
2 00809  90.4527 157.0051 0037955 312.3907  47.4067 14.10531862119683
Epoch: 2025-04-28T12:31Z
Definitive object data (Epoch: 2025-04-28T12:31:15.37Z)
Latitude
-0.00007°
Longitude
112.45653°
Altitude
842.059 km
Speed
7.441 km/s
True Right ascension
10h 28m 01s
True Declination
0° 00' 00"
Sunlit
Object was in full shadow at TLE epoch
Visualization TLE readout
Latitude
84.24511°
Longitude
108.05968°
Altitude
891.236 km
Speed
7.403 km/s
Apparent Right ascension
19h 53m 29s
Apparent Declination
36° 17' 17"
Sunlit
Object is in daylight
Visualization observer readout
Local Sidereal Time
08:12:45
Azimuth
3.994° NNE
Elevation
-13.667°
Doppler factor
1
Orbital elements
Apogee altitude
881.966 km
Perigee altitude
827.063 km
Semi-major axis
7,232.652 km
Eccentricity
0.0037955
Inclination
90.4527°
RAAN
157.0051°
Arg. of periapsis
312.3907°
True anomaly
47.72792°
Mean anomaly
47.4067°
Eccentric anomaly
47.56721°
Mean motion
3.52855 °/min
BSTAR
0.00029694
Orbital period
102.02 mins
Loading maneuver chart data...
Loading SW <> Apogee altitude chart data...
Loading historical data...
Loading historical data...
Loading historical data...
Loading historical data...
Loading historical data...
Loading historical data...
Loading historical data...

SCOUT X-4 R/B Visibility forecast

Observer location: undefined°, undefined°

Span
Click to sort rows by Start time (UTC) header in descending order
Start Az.
Max El. time (UTC)
Max El. Az.
Max El.
End time (UTC)
End Az.
9 mins2025-04-30 02:05:21.353Z143.2° SSE2025-04-30 02:10:21.353Z75.36° E30.665°2025-04-30 02:14:21.353Z18.98° NNE
7 mins2025-04-30 03:49:21.353Z233.969° WSW2025-04-30 03:52:21.353Z280.298° WNW24.625°2025-04-30 03:56:21.353Z330.38° NNW
9 mins2025-04-30 14:29:21.353Z14.909° NNE2025-04-30 14:33:21.353Z79.298° E40.355°2025-04-30 14:38:21.353Z167.331° S
6 mins2025-04-30 16:12:21.353Z317.806° NNW2025-04-30 16:15:21.353Z280.998° WNW17.335°2025-04-30 16:18:21.353Z247.874° W
|